Time,TemperatureF,DewpointF,PressureIn,WindDirection,WindDirectionDegrees,WindSpeedMPH,WindSpeedGustMPH,Humidity,HourlyPrecipIn,Conditions,Clouds,dailyrainin,SoftwareType,DateUTC
2013-01-12 00:02:00,29.0,-99.9,-100.00,West,266,4.0,6.0,-999,-99.99,,,-99.99,,2013-01-12 08:02:00,
2013-01-12 00:12:00,29.0,-99.9,-100.00,West,266,4.0,6.0,-999,-99.99,,,-99.99,,2013-01-12 08:12:00,
2013-01-12 00:32:00,26.0,-99.9,-100.00,WSW,238,2.0,6.0,-999,-99.99,,,-99.99,,2013-01-12 08:32:00,
2013-01-12 00:42:00,26.0,-99.9,-100.00,WSW,238,2.0,6.0,-999,-99.99,,,-99.99,,2013-01-12 08:42:00,
2013-01-12 00:53:00,26.0,-99.9,-100.00,WSW,238,2.0,6.0,-999,-99.99,,,-99.99,,2013-01-12 08:53:00,
2013-01-12 01:00:00,26.0,-99.9,-100.00,WSW,250,5.0,7.0,-999,-99.99,,,-99.99,,2013-01-12 09:00:00,
2013-01-12 01:22:00,26.0,-99.9,-100.00,West,276,5.0,6.0,-999,-99.99,,,-99.99,,2013-01-12 09:22:00,
2013-01-12 01:33:00,28.0,-99.9,-100.00,WSW,240,7.0,8.0,-999,-99.99,,,-99.99,,2013-01-12 09:33:00,
2013-01-12 01:43:00,28.0,-99.9,-100.00,WSW,240,7.0,8.0,-999,-99.99,,,-99.99,,2013-01-12 09:43:00,
2013-01-12 01:53:00,26.0,-99.9,-100.00,WSW,250,5.0,7.0,-999,-99.99,,,-99.99,,2013-01-12 09:53:00,
2013-01-12 02:20:00,26.0,-99.9,-100.00,West,266,2.0,4.0,-999,-99.99,,,-99.99,,2013-01-12 10:20:00,
2013-01-12 02:33:00,26.0,-99.9,-100.00,WSW,256,5.0,7.0,-999,-99.99,,,-99.99,,2013-01-12 10:33:00,
2013-01-12 02:43:00,26.0,-99.9,-100.00,WSW,256,5.0,7.0,-999,-99.99,,,-99.99,,2013-01-12 10:43:00,
2013-01-12 02:53:00,26.0,-99.9,-100.00,WSW,256,5.0,7.0,-999,-99.99,,,-99.99,,2013-01-12 10:53:00,
2013-01-12 03:02:00,26.0,-99.9,-100.00,West,266,2.0,4.0,-999,-99.99,,,-99.99,,2013-01-12 11:02:00,
2013-01-12 03:12:00,26.0,-99.9,-100.00,West,266,2.0,4.0,-999,-99.99,,,-99.99,,2013-01-12 11:12:00,
2013-01-12 03:33:00,26.0,-99.9,-100.00,West,264,6.0,9.0,-999,-99.99,,,-99.99,,2013-01-12 11:33:00,
2013-01-12 03:43:00,26.0,-99.9,-100.00,West,264,6.0,9.0,-999,-99.99,,,-99.99,,2013-01-12 11:43:00,
2013-01-12 03:53:00,26.0,-99.9,-100.00,West,264,6.0,9.0,-999,-99.99,,,-99.99,,2013-01-12 11:53:00,
2013-01-12 04:33:00,25.0,-99.9,-100.00,West,269,7.0,8.0,-999,-99.99,,,-99.99,,2013-01-12 12:33:00,
2013-01-12 04:43:00,25.0,-99.9,-100.00,West,269,7.0,8.0,-999,-99.99,,,-99.99,,2013-01-12 12:43:00,
2013-01-12 04:53:00,25.0,-99.9,-100.00,West,269,7.0,8.0,-999,-99.99,,,-99.99,,2013-01-12 12:53:00,
2013-01-12 05:33:00,23.0,-99.9,-100.00,West,264,3.0,7.0,-999,-99.99,,,-99.99,,2013-01-12 13:33:00,
2013-01-12 05:43:00,23.0,-99.9,-100.00,West,264,3.0,7.0,-999,-99.99,,,-99.99,,2013-01-12 13:43:00,
2013-01-12 05:53:00,23.0,-99.9,-100.00,West,264,3.0,7.0,-999,-99.99,,,-99.99,,2013-01-12 13:53:00,
2013-01-12 06:33:00,23.0,-99.9,-100.00,West,271,7.0,7.0,-999,-99.99,,,-99.99,,2013-01-12 14:33:00,
2013-01-12 06:43:00,23.0,-99.9,-100.00,West,271,7.0,7.0,-999,-99.99,,,-99.99,,2013-01-12 14:43:00,
2013-01-12 06:53:00,23.0,-99.9,-100.00,West,271,7.0,7.0,-999,-99.99,,,-99.99,,2013-01-12 14:53:00,
2013-01-12 07:23:00,24.0,-99.9,-100.00,West,272,6.0,7.0,-999,-99.99,,,-99.99,,2013-01-12 15:23:00,
2013-01-12 07:34:00,23.0,-99.9,-100.00,West,260,5.0,7.0,-999,-99.99,,,-99.99,,2013-01-12 15:34:00,
2013-01-12 07:43:00,23.0,-99.9,-100.00,West,260,5.0,7.0,-999,-99.99,,,-99.99,,2013-01-12 15:43:00,
2013-01-12 07:53:00,23.0,-99.9,-100.00,West,260,5.0,7.0,-999,-99.99,,,-99.99,,2013-01-12 15:53:00,
2013-01-12 08:33:00,25.0,-99.9,-100.00,SW,232,4.0,6.0,-999,-99.99,,,-99.99,,2013-01-12 16:33:00,
2013-01-12 08:43:00,25.0,-99.9,-100.00,SW,232,4.0,6.0,-999,-99.99,,,-99.99,,2013-01-12 16:43:00,
2013-01-12 08:53:00,25.0,-99.9,-100.00,SW,232,4.0,6.0,-999,-99.99,,,-99.99,,2013-01-12 16:53:00,
2013-01-12 09:33:00,24.0,-99.9,-100.00,WSW,250,2.0,4.0,-999,-99.99,,,-99.99,,2013-01-12 17:33:00,
2013-01-12 09:43:00,24.0,-99.9,-100.00,WSW,250,2.0,4.0,-999,-99.99,,,-99.99,,2013-01-12 17:43:00,
2013-01-12 09:53:00,24.0,-99.9,-100.00,WSW,250,2.0,4.0,-999,-99.99,,,-99.99,,2013-01-12 17:53:00,
2013-01-12 10:33:00,27.0,-99.9,-100.00,West,260,4.0,4.0,-999,-99.99,,,-99.99,,2013-01-12 18:33:00,
2013-01-12 10:43:00,27.0,-99.9,-100.00,West,260,4.0,4.0,-999,-99.99,,,-99.99,,2013-01-12 18:43:00,
2013-01-12 10:53:00,27.0,-99.9,-100.00,West,260,4.0,4.0,-999,-99.99,,,-99.99,,2013-01-12 18:53:00,
2013-01-12 11:03:00,27.0,-99.9,-100.00,WSW,256,3.0,5.0,-999,-99.99,,,-99.99,,2013-01-12 19:03:00,
2013-01-12 11:13:00,27.0,-99.9,-100.00,WSW,256,3.0,5.0,-999,-99.99,,,-99.99,,2013-01-12 19:13:00,
2013-01-12 11:23:00,28.0,-99.9,-100.00,West,266,2.0,4.0,-999,-99.99,,,-99.99,,2013-01-12 19:23:00,
2013-01-12 11:33:00,29.0,-99.9,-100.00,WNW,298,1.0,5.0,-999,-99.99,,,-99.99,,2013-01-12 19:33:00,
2013-01-12 11:43:00,29.0,-99.9,-100.00,WNW,298,1.0,5.0,-999,-99.99,,,-99.99,,2013-01-12 19:43:00,
2013-01-12 11:53:00,29.0,-99.9,-100.00,West,273,2.0,4.0,-999,-99.99,,,-99.99,,2013-01-12 19:53:00,
2013-01-12 12:03:00,29.0,-99.9,-100.00,West,273,2.0,4.0,-999,-99.99,,,-99.99,,2013-01-12 20:03:00,
2013-01-12 12:10:00,29.0,-99.9,-100.00,South,185,1.0,2.0,-999,-99.99,,,-99.99,,2013-01-12 20:10:00,
2013-01-12 12:33:00,29.0,-99.9,-100.00,South,182,2.0,3.0,-999,-99.99,,,-99.99,,2013-01-12 20:33:00,
2013-01-12 12:43:00,29.0,-99.9,-100.00,South,182,2.0,3.0,-999,-99.99,,,-99.99,,2013-01-12 20:43:00,
2013-01-12 12:53:00,29.0,-99.9,-100.00,South,185,1.0,2.0,-999,-99.99,,,-99.99,,2013-01-12 20:53:00,
2013-01-12 13:03:00,29.0,-99.9,-100.00,South,185,1.0,2.0,-999,-99.99,,,-99.99,,2013-01-12 21:03:00,
2013-01-12 13:33:00,30.0,-99.9,-100.00,East,83,0.0,2.0,-999,-99.99,,,-99.99,,2013-01-12 21:33:00,
2013-01-12 13:43:00,30.0,-99.9,-100.00,East,83,0.0,2.0,-999,-99.99,,,-99.99,,2013-01-12 21:43:00,
2013-01-12 13:53:00,30.0,-99.9,-100.00,East,83,0.0,2.0,-999,-99.99,,,-99.99,,2013-01-12 21:53:00,
2013-01-12 14:23:00,29.0,-99.9,-100.00,East,95,0.0,2.0,-999,-99.99,,,-99.99,,2013-01-12 22:23:00,
2013-01-12 14:33:00,32.0,-99.9,-100.00,SE,132,0.0,2.0,-999,-99.99,,,-99.99,,2013-01-12 22:33:00,
2013-01-12 14:44:00,32.0,-99.9,-100.00,SE,132,0.0,2.0,-999,-99.99,,,-99.99,,2013-01-12 22:44:00,
2013-01-12 14:53:00,32.0,-99.9,-100.00,SE,132,0.0,2.0,-999,-99.99,,,-99.99,,2013-01-12 22:53:00,
2013-01-12 15:33:00,31.0,-99.9,-100.00,SSW,193,0.0,1.0,-999,-99.99,,,-99.99,,2013-01-12 23:33:00,
2013-01-12 15:43:00,31.0,-99.9,-100.00,SSW,193,0.0,1.0,-999,-99.99,,,-99.99,,2013-01-12 23:43:00,
2013-01-12 15:53:00,31.0,-99.9,-100.00,SSW,193,0.0,1.0,-999,-99.99,,,-99.99,,2013-01-12 23:53:00,
2013-01-12 16:33:00,32.0,-99.9,-100.00,SSE,148,1.0,2.0,-999,-99.99,,,-99.99,,2013-01-13 00:33:00,
2013-01-12 16:43:00,32.0,-99.9,-100.00,SSE,148,1.0,2.0,-999,-99.99,,,-99.99,,2013-01-13 00:43:00,
2013-01-12 16:53:00,32.0,-99.9,-100.00,SSE,148,1.0,2.0,-999,-99.99,,,-99.99,,2013-01-13 00:53:00,
2013-01-12 17:33:00,32.0,-99.9,-100.00,South,171,1.0,2.0,-999,-99.99,,,-99.99,,2013-01-13 01:33:00,
2013-01-12 17:43:00,32.0,-99.9,-100.00,South,171,1.0,2.0,-999,-99.99,,,-99.99,,2013-01-13 01:43:00,
2013-01-12 17:53:00,32.0,-99.9,-100.00,South,171,1.0,2.0,-999,-99.99,,,-99.99,,2013-01-13 01:53:00,
2013-01-12 18:00:00,32.0,-99.9,-100.00,ESE,121,2.0,4.0,-999,-99.99,,,-99.99,,2013-01-13 02:00:00,
2013-01-12 18:33:00,33.0,-99.9,-100.00,ESE,106,3.0,5.0,-999,-99.99,,,-99.99,,2013-01-13 02:33:00,
2013-01-12 18:43:00,33.0,-99.9,-100.00,ESE,106,3.0,5.0,-999,-99.99,,,-99.99,,2013-01-13 02:43:00,
2013-01-12 18:53:00,32.0,-99.9,-100.00,ESE,121,2.0,4.0,-999,-99.99,,,-99.99,,2013-01-13 02:53:00,
2013-01-12 19:23:00,34.0,-99.9,-100.00,SSE,148,3.0,6.0,-999,-99.99,,,-99.99,,2013-01-13 03:23:00,
2013-01-12 19:33:00,34.0,-99.9,-100.00,SSE,148,3.0,6.0,-999,-99.99,,,-99.99,,2013-01-13 03:33:00,
2013-01-12 19:53:00,31.0,-99.9,-100.00,NE,46,0.0,3.0,-999,-99.99,,,-99.99,,2013-01-13 03:53:00,
2013-01-12 20:03:00,31.0,-99.9,-100.00,NE,46,0.0,3.0,-999,-99.99,,,-99.99,,2013-01-13 04:03:00,
2013-01-12 20:33:00,33.0,-99.9,-100.00,NE,42,1.0,5.0,-999,-99.99,,,-99.99,,2013-01-13 04:33:00,
2013-01-12 20:43:00,33.0,-99.9,-100.00,NE,42,1.0,5.0,-999,-99.99,,,-99.99,,2013-01-13 04:43:00,
2013-01-12 20:53:00,33.0,-99.9,-100.00,NE,42,1.0,5.0,-999,-99.99,,,-99.99,,2013-01-13 04:53:00,
2013-01-12 21:10:00,29.0,-99.9,-100.00,SW,216,2.0,3.0,-999,-99.99,,,-99.99,,2013-01-13 05:10:00,
2013-01-12 21:23:00,31.0,-99.9,-100.00,ESE,115,2.0,3.0,-999,-99.99,,,-99.99,,2013-01-13 05:23:00,
2013-01-12 21:33:00,28.0,-99.9,-100.00,WSW,243,2.0,2.0,-999,-99.99,,,-99.99,,2013-01-13 05:33:00,
2013-01-12 21:42:00,28.0,-99.9,-100.00,WSW,243,2.0,2.0,-999,-99.99,,,-99.99,,2013-01-13 05:42:00,
2013-01-12 21:53:00,29.0,-99.9,-100.00,SW,216,2.0,3.0,-999,-99.99,,,-99.99,,2013-01-13 05:53:00,
2013-01-12 22:03:00,29.0,-99.9,-100.00,SW,216,2.0,3.0,-999,-99.99,,,-99.99,,2013-01-13 06:03:00,
2013-01-12 22:33:00,27.0,-99.9,-100.00,South,188,0.0,0.0,-999,-99.99,,,-99.99,,2013-01-13 06:33:00,
2013-01-12 22:43:00,27.0,-99.9,-100.00,South,188,0.0,0.0,-999,-99.99,,,-99.99,,2013-01-13 06:43:00,
2013-01-12 22:53:00,27.0,-99.9,-100.00,South,188,0.0,0.0,-999,-99.99,,,-99.99,,2013-01-13 06:53:00,
2013-01-12 23:33:00,25.0,-99.9,-100.00,WSW,253,2.0,3.0,-999,-99.99,,,-99.99,,2013-01-13 07:33:00,
2013-01-12 23:42:00,25.0,-99.9,-100.00,WSW,253,2.0,3.0,-999,-99.99,,,-99.99,,2013-01-13 07:42:00,
2013-01-12 23:53:00,25.0,-99.9,-100.00,WSW,253,2.0,3.0,-999,-99.99,,,-99.99,,2013-01-13 07:53:00,